Lid_Strength_Index
2 2 2 2 2 3 3 3 2 2 2 2 2 1 1 2 3 4 9 5 4 -3 -1 4 2 3 2 5 4 4 11 14 12 12 10 7 8 5 4 6 5 5 5 4 2
2 2 2 3 3 3 3 3 3 2 2 2 2 2 1 1 4 7 3 -2 -3 -3 4 6 7 4 6 6 6 8 12 11 8 8 9 8 7 7 7 7 7 6 4 3 3
2 3 3 3 4 4 3 3 2 2 2 3 2 2 2 1 6 7 -3 -3 -3 -2 5 6 7 5 7 6 6 7 11 8 7 7 6 7 7 6 8 9 7 7 6 4 4
3 3 3 4 4 4 4 3 3 2 3 3 2 2 1 3 10 3 -3 -2 -2 -0 5 7 7 8 8 8 6 9 7 7 7 6 6 7 6 7 7 7 5 5 4 4 4
3 3 4 4 4 4 4 4 3 3 3 3 2 2 4 9 9 4 -2 -2 0 3 6 8 7 7 8 7 6 8 7 6 6 6 6 6 7 7 7 5 4 4 4 5 4
3 4 4 4 4 4 3 4 4 3 3 2 2 2 7 12 6 1 0 1 3 5 7 8 7 5 7 7 7 6 6 7 6 7 6 8 8 7 6 5 5 5 5 5 4
3 4 4 4 4 4 4 4 3 3 3 2 2 2 6 10 3 2 4 5 6 7 8 5 5 5 6 8 5 6 9 7 8 7 8 7 10 9 6 5 6 6 5 5 4
3 4 4 5 5 5 4 4 4 3 3 2 2 5 12 6 4 4 5 5 6 7 6 5 3 6 7 6 6 8 9 12 8 8 7 8 13 8 6 6 7 6 5 5 4
4 4 4 5 5 5 5 4 4 3 2 2 7 7 10 2 4 5 4 6 6 7 6 4 6 8 7 9 11 10 13 12 10 8 8 9 12 8 6 7 7 7 6 5 5
4 4 4 5 5 6 5 5 5 4 3 3 4 9 6 7 6 6 5 4 5 5 5 7 9 10 11 11 15 13 13 12 12 10 9 11 11 8 7 7 7 7 6 5 5
4 4 5 5 6 6 7 7 11 11 7 10 10 8 6 5 5 6 5 5 6 7 9 8 11 14 12 10 9 10 11 12 10 8 10 11 11 10 8 8 8 7 7 6 6
4 4 5 5 5 6 8 10 10 7 10 7 7 7 6 6 8 7 5 7 7 9 9 10 13 11 10 10 10 10 11 11 9 9 10 11 12 10 8 8 8 7 7 6 6
4 4 5 5 5 8 9 7 6 7 10 8 7 8 7 7 8 8 6 7 9 9 10 12 11 9 10 11 11 11 11 11 11 10 9 11 13 11 9 8 7 6 6 6 6
4 5 5 5 8 8 8 7 6 6 13 10 9 7 7 8 9 7 7 7 9 9 10 12 10 10 11 11 11 12 8 9 10 12 15 11 18 13 11 10 9 7 7 6 5
4 5 6 6 7 7 6 6 8 8 16 8 9 6 8 9 8 8 5 7 9 9 10 12 11 11 11 11 9 10 8 9 9 12 14 13 15 13 11 12 10 8 7 6 5
5 5 6 7 8 7 5 6 9 13 15 10 9 9 10 9 8 8 7 7 7 9 10 10 8 9 9 8 9 8 10 11 11 12 16 14 14 14 13 11 10 8 7 6 5
5 6 6 5 7 5 6 9 14 16 9 10 11 11 11 11 10 9 9 10 11 13 14 11 10 9 9 11 10 10 13 16 16 16 16 14 15 13 10 8 8 8 7 6 5
6 7 7 6 6 6 8 12 17 11 11 9 10 11 12 11 11 10 11 11 11 12 14 14 13 11 9 10 11 12 13 15 18 17 16 14 16 12 8 8 7 6 6 6 5
7 9 8 6 6 7 10 15 13 11 9 10 11 12 13 11 11 11 11 12 10 11 13 15 13 10 9 10 9 13 14 13 16 17 17 15 12 9 8 9 8 7 7 6 5
8 7 6 5 5 8 11 14 12 9 9 10 13 11 13 12 12 12 12 10 10 9 10 12 14 11 9 10 10 11 11 14 16 18 19 16 14 14 10 9 8 8 7 6 6
7 7 4 4 6 9 12 13 10 8 8 10 11 11 11 11 11 13 11 9 7 9 9 12 13 11 10 12 12 12 14 15 15 16 18 18 15 11 9 8 9 8 7 6 6
8 8 5 6 9 12 12 11 9 8 8 9 9 9 10 10 11 11 10 9 6 8 12 11 14 15 12 10 10 10 12 14 16 16 16 17 14 9 9 8 7 7 7 6 5
9 8 4 6 12 12 10 9 8 9 9 9 9 9 9 11 12 10 9 7 7 8 10 11 14 16 13 12 10 12 12 12 14 15 16 16 14 9 8 8 7 7 6 7 6
8 9 8 8 10 10 11 10 10 7 8 8 9 9 9 10 10 11 10 8 7 7 6 9 14 15 16 14 12 12 11 12 14 16 15 15 14 11 10 9 8 7 6 6 6
10 11 10 10 10 9 11 10 10 10 9 9 10 9 10 12 11 11 10 10 8 7 9 10 13 12 12 11 11 11 11 11 13 13 14 13 14 12 10 9 8 7 7 7 6
11 12 11 11 9 11 12 11 11 10 10 11 11 10 10 12 11 12 11 11 10 9 11 11 14 14 14 11 12 12 11 10 12 12 12 12 14 9 8 7 8 7 7 7 7
8 10 10 11 11 12 12 12 10 9 9 9 9 10 10 9 8 9 9 10 10 11 13 13 13 15 16 13 13 15 12 12 12 11 12 15 12 9 9 8 8 8 7 7 6